Regional Weather Roundup
Issued by NWS Jackson, KY

Home | Current Version | Previous Version | Graphics & Text | Print | Product List | Glossary Off
Versions: 1 2 3 4 5 6 7 8 9 10 11 12 13 14 15 16 17 18 19 20 21 22 23 24 25 26 27 28 29 30 31 32 33 34 35 36 37 38 39 40 41 42 43 44 45 46 47 48 49 50

755
ASUS43 KJKL 181810
RWRJKL

EAST KENTUCKY HOURLY WEATHER ROUNDUP
NATIONAL WEATHER SERVICE JACKSON KY
200 PM EDT WED OCT 18 2017

NOTE: "FAIR" INDICATES FEW OR NO CLOUDS BELOW 12,000 FEET WITH
NO SIGNIFICANT WEATHER AND/OR OBSTRUCTIONS TO VISIBILITY.

* THESE REPORTS ARE NOT UNDER NWS QUALITY CONTROL AND MAY NOT
  REPORT WEATHER SUCH AS PRECIPITATION AND FOG.

KYZ079-080-083-085-087-088-110-112-115-119-120-181900
...EASTERN KENTUCKY...

CITY           SKY/WX    TMP DP  RH WIND       PRES   REMARKS
JACKSON        SUNNY     68  42  38 CALM      30.31F
6HR MIN TEMP:  43; 6HR MAX TEMP:  68;

LONDON         SUNNY     67  42  40 S5        30.31F
6HR MIN TEMP:  38; 6HR MAX TEMP:  67;

SOMERSET*      SUNNY     63  43  48 CALM      30.33F
MONTICELLO*    SUNNY     68  46  45 N9        30.32F
6HR MIN TEMP:  34; 6HR MAX TEMP:  68;

WILLIAMSBURG*  CLEAR     66  45  45 S3        30.32F
MIDDLESBORO*   SUNNY     68  45  44 CALM      30.33F
6HR MIN TEMP:  39; 6HR MAX TEMP:  68;

HARLAN APT*    CLEAR     64  41  42 CALM      30.32F
PIKE CO APT*     N/A     66  42  42 W6        30.31F
BIG SANDY APT* CLEAR     67  42  39 SW7       30.31F
6HR MIN TEMP:  41; 6HR MAX TEMP:  67;

MOREHEAD APT*  CLEAR     66  43  42 CALM      30.32F
$$

KYZ035-036-041-042-044-050-067-078-099-181900
...CENTRAL KENTUCKY...

CITY           SKY/WX    TMP DP  RH WIND       PRES   REMARKS
MT STERLING*   SUNNY     66  43  42 S7        30.32F
FLEMING/MASON* SUNNY     66  44  44 S6        30.30F
DANVILLE*      SUNNY     66  43  42 SW5       30.31F
LEXINGTON        N/A     67  46  47 VRB6      30.29F
6HR MIN TEMP:  42; 6HR MAX TEMP:  68;

FRANKFORT      SUNNY     69  42  37 VRB5      30.28F
6HR MIN TEMP:  38; 6HR MAX TEMP:  69;

LOUISVILLE     MOSUNNY   69  46  43 S9        30.26F
6HR MIN TEMP:  44; 6HR MAX TEMP:  70;

LEBANON*         N/A     68  43  40 S6        30.29F
GLASGOW*       SUNNY     70  44  39 S10       30.29F
BOWLING GREEN  SUNNY     70  46  42 S12       30.29F
6HR MIN TEMP:  40; 6HR MAX TEMP:  70;

$$

KYZ091>093-OHZ055-061-077-WVZ005-015-034-035-042-181900
...SOUTHERN OHIO/WEST VIRGINIA...

CITY           SKY/WX    TMP DP  RH WIND       PRES   REMARKS
COVINGTON      MOSUNNY   67  46  47 SW8       30.27F
COLUMBUS       SUNNY     66  42  41 S9        30.28F
DAYTON         MOSUNNY   65  45  48 S8        30.27F
WILMINGTON     SUNNY     66  43  43 S9        30.27F
HUNTINGTON     SUNNY     67  42  40 S6        30.29F
CHARLESTON     MOSUNNY   69  42  37 VRB5      30.30F
PINEVILLE*     SUNNY     70  35  27 MISG      30.35F
BECKLEY        SUNNY     64  37  36 SE9       30.33F
BLUEFIELD      SUNNY     62  34  35 S5        30.35F
LOGAN CO APT*    N/A     68  41  37 VRB3      30.30F
$$

VAZ002-007-008-TNZ017-027-036-066-071-181900
...SOUTHWEST VIRGINIA/EAST TENNESSEE...

CITY           SKY/WX    TMP DP  RH WIND       PRES   REMARKS
WISE*          SUNNY     64  43  45 CALM      30.35F
JONESVILLE*      N/A     66  41  39 CALM      30.34F
ABINGDON*      SUNNY     67  40  37 SW3       30.34F
BRISTOL        MOSUNNY   67  43  41 CALM      30.33F
MORRISTOWN*    CLEAR     64  45  48 CALM      30.32F
SEVIERVILLE*   CLEAR     66  45  45 CALM      30.32F
KNOXVILLE      MOSUNNY   66  50  56 N3        30.32F
LAFOLLETTE*    CLEAR     64  48  55 CALM      30.36F
CROSSVILLE     SUNNY     65  42  43 CALM      30.32F
NASHVILLE      MOSUNNY   70  42  36 SE10      30.30F
$$

...KEY TO REMARKS...
VSB - VISIBILITY IN MILES
WCI - WIND CHILL INDEX
HX  - HEAT INDEX

$$




USA.gov is the U.S. government's official web portal to all federal, state and local government web resources and services.